SCP
1 0 0 0 0 0 0 0 1 1 1 1 0 0 1 1 1 1 1 1 1 1 0 0 0 0 0 0 0 0 0 0 0 0 0 0 0 0 0 0 0 0 0
2 1 1 1 1 0 0 0 0 1 1 1 0 1 2 1 1 1 1 1 1 1 0 0 0 0 0 0 0 0 0 0 0 0 0 0 0 0 0 0 0 0 0
2 2 1 0 1 1 1 1 0 1 2 2 2 2 2 2 2 2 2 1 1 1 0 0 0 0 0 0 0 0 0 0 0 0 0 0 0 0 0 0 -0 0 -0
6 4 2 2 1 1 1 1 2 2 2 3 3 2 3 3 2 2 1 1 1 1 0 0 0 0 0 0 0 0 0 0 0 0 0 0 0 0 0 0 0 -0 -0
5 5 4 2 3 2 1 1 2 2 2 3 2 1 3 2 1 1 1 1 1 1 1 0 0 0 0 0 0 0 0 0 0 0 0 0 0 0 0 -0 0 0 0
7 4 4 3 4 2 2 1 2 2 2 3 1 1 2 2 1 1 1 0 1 1 1 0 0 0 0 0 0 0 0 0 0 0 0 0 0 0 0 0 -0 -0 0
6 4 3 3 2 2 2 2 3 3 2 1 2 2 1 1 1 1 1 1 1 0 0 0 0 0 0 0 0 0 0 0 0 0 0 0 0 0 0 0 0 0 -0
5 3 3 1 2 2 2 2 3 2 2 1 2 2 1 1 1 1 0 1 0 0 0 0 0 0 0 0 0 0 0 0 0 0 0 0 0 0 0 -0 -0 -0 -0
4 3 2 1 2 2 2 2 2 2 1 2 2 2 1 1 1 1 0 1 0 1 0 0 0 0 0 0 0 0 0 0 0 0 0 0 0 0 0 -0 -0 -0 -0
2 2 2 1 2 2 1 1 2 1 1 2 2 2 1 1 1 0 1 0 0 0 0 0 0 0 0 0 0 0 0 0 0 0 0 0 0 0 0 -0 -0 -0 -0
2 2 1 1 2 1 1 1 1 1 2 2 1 1 1 0 0 0 0 0 0 0 0 0 0 0 0 0 0 0 0 0 0 0 0 -0 0 0 -0 -0 -0 -0 -0
2 1 1 1 1 1 1 1 1 1 2 2 1 1 0 0 0 0 0 0 0 0 0 0 0 0 0 0 0 0 0 0 0 0 0 0 -0 -0 -0 -0 -0 -0 -0
1 1 1 1 1 1 1 1 2 2 1 1 1 0 0 1 0 0 0 0 0 0 0 0 0 0 0 -0 -0 0 0 0 0 0 0 -0 0 -0 -0 -0 -0 -0 -0
1 1 1 1 1 1 1 2 2 1 1 1 1 1 1 0 0 0 0 0 0 0 0 0 0 0 0 0 0 0 0 0 0 0 0 -0 0 0 0 -0 0 0 -0
1 1 1 1 1 1 2 1 1 1 1 0 1 1 0 0 0 0 0 0 0 0 0 0 0 0 0 -0 0 0 0 0 0 0 0 -0 -0 0 0 0 0 0 -0
1 1 1 1 1 1 1 1 0 1 1 1 0 0 0 0 0 0 -0 0 -0 0 0 0 0 0 0 0 0 0 0 0 0 0 0 0 0 0 0 0 0 0 -0
1 1 1 1 1 1 0 0 1 0 0 0 0 0 0 0 0 0 0 -0 0 0 0 0 0 0 0 0 0 0 0 0 0 0 0 0 -0 0 0 0 -0 -0 -0
1 0 1 0 0 0 0 0 0 0 0 0 0 0 0 0 -0 0 0 0 0 0 0 0 0 0 0 0 0 0 0 0 0 0 0 0 -0 -0 -0 0 -0 -0 -0
1 0 0 0 0 0 0 0 0 0 0 0 0 0 0 0 0 0 0 0 0 0 -0 0 0 0 0 0 0 0 0 0 0 0 0 0 0 -0 -0 -0 -0 -0 0
0 0 0 0 0 0 0 0 0 0 0 0 0 0 0 0 0 0 0 0 0 0 0 0 0 0 0 0 0 0 0 0 0 0 0 0 0 -0 -0 0 0 0 0
0 0 0 0 0 0 0 0 0 0 0 0 0 0 0 0 0 0 0 0 0 0 0 0 0 0 0 0 0 0 0 0 0 0 0 0 0 0 0 0 0 0 0
0 0 0 0 0 0 0 0 0 0 0 0 0 0 0 0 0 0 0 0 0 0 0 0 0 0 0 0 0 0 0 0 0 0 0 0 0 0 0 0 0 0 0
0 0 0 0 0 0 0 0 0 0 0 0 0 -0 -0 0 0 0 0 0 0 0 0 0 0 0 0 0 0 0 0 0 0 0 0 0 0 0 0 0 0 0 0
0 0 0 -0 0 0 0 0 0 0 0 0 0 -0 -0 0 0 0 0 0 0 0 0 0 0 0 0 0 0 0 0 0 0 0 0 0 0 0 0 0 0 0 0
0 0 0 -0 -0 0 0 0 0 0 0 0 -0 -0 0 0 0 0 0 0 0 0 0 0 0 0 0 0 0 0 0 0 0 0 0 0 0 0 0 0 0 0 0
0 0 -0 0 -0 -0 0 0 0 0 0 0 -0 0 0 0 0 0 0 0 0 0 0 0 0 0 0 0 0 0 0 0 0 0 0 0 0 0 0 0 0 0 0
Wind_Speed_500mb
54 53 61 60 60 53 48 55 61 52 40 31 27 35 48 41 32 33 33 29 34 35 33 31 27 24 32 33 32 33 32 27 24 25 24 27 55 30 39 24 24 28 27
61 52 54 61 58 58 49 39 41 44 45 35 31 39 43 39 36 36 31 35 36 35 30 32 27 26 27 36 36 35 34 32 27 26 29 31 42 28 26 19 24 27 35
68 62 53 56 60 57 51 43 47 38 52 47 49 40 44 47 43 41 40 39 40 37 38 36 29 28 27 35 40 39 36 36 30 28 32 33 36 29 28 24 17 25 25
73 66 60 61 61 61 61 54 51 49 47 54 43 43 47 43 35 43 46 47 47 42 41 36 33 27 29 30 40 39 38 36 33 28 31 32 33 26 31 21 23 29 27
70 71 64 61 60 61 62 58 62 58 54 51 56 44 49 49 46 50 44 36 42 45 39 33 34 28 26 28 37 37 37 36 35 28 34 30 41 28 28 22 23 23 18
71 70 63 60 62 59 60 62 60 61 54 49 40 41 47 41 39 29 40 43 46 51 48 41 35 28 30 30 33 38 35 36 34 30 33 32 35 32 35 27 21 20 28
67 69 63 59 63 58 64 57 55 54 54 49 40 43 43 42 35 33 30 49 54 61 55 46 41 31 30 28 33 38 39 38 33 30 33 34 33 32 30 18 26 31 32
63 63 60 56 54 59 58 58 57 58 60 43 47 44 34 28 39 39 43 45 46 46 40 46 35 40 28 27 33 39 40 38 34 31 34 38 35 32 36 33 36 39 32
64 61 54 53 52 54 55 60 56 62 42 37 45 28 13 13 14 28 32 37 41 34 32 28 40 41 34 36 35 38 40 39 37 34 40 39 38 36 36 36 39 33 34
62 55 50 55 47 46 48 44 63 47 43 41 32 35 34 24 11 9 20 28 23 22 31 30 31 32 35 41 35 32 39 40 37 37 43 41 40 36 39 38 33 39 45
52 50 50 57 47 38 45 42 33 38 42 34 28 18 22 17 22 27 23 23 23 22 28 38 35 51 35 45 35 33 39 43 41 42 43 46 40 40 39 35 43 48 47
53 49 47 51 43 35 35 38 28 35 31 31 31 19 25 22 24 28 31 32 21 18 17 18 23 29 35 37 38 31 35 43 45 47 50 47 44 42 37 41 45 48 48
49 44 40 46 38 43 35 32 33 34 35 32 27 22 22 25 29 30 25 19 11 19 22 20 18 29 28 51 37 36 36 39 43 45 49 45 46 43 40 44 50 53 38
40 43 42 38 35 35 29 35 36 36 31 25 26 29 31 31 31 29 20 22 11 16 19 23 24 29 28 23 29 30 34 36 44 48 47 47 45 41 43 45 48 43 37
37 45 47 40 34 29 34 31 30 24 25 24 26 27 22 23 24 17 21 17 25 15 23 23 29 34 38 34 32 31 34 38 41 45 48 47 43 38 41 46 43 41 38
40 43 40 36 31 34 32 25 20 18 25 27 27 25 20 24 21 19 22 17 18 15 17 27 30 41 35 32 35 32 35 39 39 42 46 44 41 37 40 43 42 39 39
44 42 35 29 33 28 19 14 20 25 29 29 29 32 22 23 19 26 20 18 18 21 25 30 31 40 37 36 34 31 37 40 41 36 43 41 40 39 43 45 40 39 37
36 34 29 24 19 18 20 24 22 19 20 25 29 31 23 19 20 25 26 24 18 18 25 40 40 38 34 33 34 35 38 41 41 44 41 40 38 44 47 42 41 41 35
35 31 27 22 18 22 22 19 21 20 28 30 30 28 27 23 19 24 29 32 23 17 34 48 54 47 44 36 40 44 39 45 43 46 43 40 41 48 46 42 40 36 33
33 28 25 24 18 15 17 17 23 26 26 26 26 28 35 30 19 23 35 26 25 30 39 55 55 51 46 43 42 42 43 47 49 49 48 42 46 44 44 40 38 35 33
33 30 25 18 21 21 25 20 14 12 18 25 22 24 27 30 22 21 32 29 27 33 47 54 55 52 46 45 47 49 55 53 52 52 51 49 50 51 47 42 38 34 32
29 27 25 19 24 18 14 11 10 8 9 19 26 22 28 36 22 22 28 30 33 36 47 48 53 52 50 53 49 52 56 63 56 50 56 59 51 52 47 41 38 38 38
31 28 22 19 17 14 8 9 11 6 1 5 14 25 32 23 23 20 23 28 31 27 28 32 46 50 54 54 53 54 55 61 64 61 57 56 50 48 42 38 40 40 39
32 28 22 14 12 13 11 13 12 10 7 10 16 23 21 18 20 21 27 30 32 27 16 22 39 46 44 50 45 48 57 60 62 56 58 63 54 40 36 35 36 42 42
28 29 17 14 14 14 14 14 8 7 10 13 18 23 23 25 27 29 37 38 32 25 22 15 29 35 34 43 44 46 48 56 66 59 53 58 42 36 33 33 37 43 40
27 28 21 15 12 13 12 14 12 7 6 14 21 30 31 26 39 35 32 32 34 28 26 27 34 36 37 41 38 37 50 60 66 56 50 49 46 34 22 28 34 44 41
Wind_Direction_500mb
262 254 243 239 248 250 251 244 241 246 248 253 233 214 234 243 249 238 260 273 285 285 294 306 272 249 230 224 219 221 222 221 220 220 208 208 189 233 216 218 222 230 238
267 261 247 229 227 245 250 252 238 238 241 248 232 228 239 242 247 253 253 261 271 280 284 295 280 260 240 225 219 216 218 218 214 215 207 203 205 219 215 215 227 235 215
264 260 246 236 228 222 244 243 241 224 224 232 231 239 247 242 249 240 247 255 263 270 274 289 284 260 252 228 217 216 215 218 215 219 203 197 201 209 192 200 212 208 201
258 252 245 232 230 227 219 231 231 225 231 228 232 238 248 246 243 237 252 249 254 263 269 267 267 264 248 233 215 216 214 215 216 217 207 202 197 200 197 208 215 216 215
253 249 241 233 230 230 223 226 227 232 230 235 233 237 246 245 246 249 250 259 247 254 251 260 263 258 249 234 217 214 212 213 209 208 209 209 204 205 201 211 204 213 229
250 247 239 237 221 229 223 224 229 227 229 228 242 236 245 257 262 268 245 249 244 234 252 250 246 251 259 237 221 214 210 205 205 207 201 201 203 211 198 205 201 193 187
239 245 246 225 222 223 224 223 227 226 227 235 230 239 252 262 257 259 248 251 251 259 252 242 253 239 248 231 230 217 210 204 204 206 197 191 190 187 190 170 201 182 182
238 243 245 218 226 219 225 218 224 221 229 230 233 245 257 260 248 248 254 253 268 259 243 231 240 235 244 245 231 212 208 206 200 200 192 187 180 176 170 160 179 188 173
237 244 238 209 227 220 220 220 223 227 230 218 229 226 236 235 229 241 252 259 268 253 239 240 228 242 224 235 222 209 204 200 198 195 190 185 182 182 184 182 180 175 172
236 234 229 196 219 221 216 228 229 229 207 221 226 228 234 251 243 255 254 264 264 253 226 223 217 221 212 212 194 194 198 195 192 191 186 181 183 184 176 181 186 172 169
220 214 212 195 215 220 203 228 224 204 213 217 226 225 255 257 256 249 266 272 271 245 249 235 237 227 212 204 185 180 200 198 190 180 176 182 178 173 170 174 174 164 180
218 212 213 203 210 204 205 217 207 206 202 214 228 221 249 233 229 247 255 260 266 227 228 205 214 211 206 170 187 174 187 186 183 176 176 177 173 172 168 170 166 169 172
209 200 194 192 196 192 200 209 203 213 226 234 232 211 222 234 241 256 254 253 220 212 203 196 201 200 188 150 164 173 170 174 178 173 172 177 171 171 170 169 166 167 176
198 187 186 188 192 187 197 201 219 227 235 236 220 219 221 241 239 239 252 235 205 191 188 206 178 184 176 157 157 162 163 166 174 179 171 175 177 171 172 168 166 172 186
188 185 187 184 184 194 215 224 225 224 226 215 225 223 236 222 230 217 244 254 213 184 183 176 173 175 185 168 161 166 169 168 167 170 172 172 174 179 172 173 169 178 180
186 185 181 179 191 203 217 228 225 219 214 228 226 233 239 224 226 229 218 228 215 210 172 175 175 169 173 159 160 168 173 170 167 171 172 173 175 172 173 168 171 174 170
173 173 178 190 205 219 212 204 212 219 231 238 232 237 235 227 218 215 202 222 221 212 184 161 165 162 157 166 170 168 169 172 166 171 170 168 171 169 166 169 169 168 173
172 167 178 190 190 203 208 222 241 239 240 239 238 235 228 218 228 204 200 204 211 179 164 157 156 166 159 170 170 163 166 172 166 164 171 168 170 168 170 169 168 174 174
161 172 177 182 188 194 217 242 244 239 237 242 241 231 222 221 230 205 199 199 194 165 163 163 155 161 169 179 165 168 169 168 164 163 169 170 170 170 168 170 175 176 179
163 165 165 175 196 209 200 214 239 249 250 238 235 230 222 220 223 202 197 198 179 173 168 172 165 165 166 167 173 173 161 164 164 165 169 169 170 171 172 178 179 182 182
166 168 169 171 169 198 228 250 249 243 230 239 242 226 218 201 205 201 190 187 182 177 178 177 170 173 171 169 172 171 166 166 159 166 165 171 174 173 179 182 184 186 191
165 169 162 179 205 231 239 237 210 239 264 233 230 218 208 193 204 190 190 182 179 180 181 181 180 179 176 176 178 175 172 158 154 170 176 175 180 183 184 189 197 195 192
169 155 172 188 232 206 177 177 163 191 131 139 151 169 173 196 199 187 175 171 166 187 189 188 186 186 181 183 183 175 172 169 167 171 186 172 182 184 188 200 195 199 202
171 160 176 215 170 147 146 155 143 180 215 159 155 167 181 179 175 163 159 156 163 169 185 202 197 186 185 181 186 179 180 180 170 173 185 172 180 190 200 204 210 204 205
178 164 169 164 135 135 136 161 161 204 177 168 173 168 158 159 154 150 163 163 160 170 148 149 176 186 180 179 185 189 184 177 167 171 180 182 178 188 199 213 209 205 213
160 152 157 155 129 126 123 131 124 100 176 179 175 172 166 156 156 154 164 169 171 169 163 161 160 171 175 181 190 198 190 184 181 173 185 185 179 183 204 234 222 221 226
Wind_Speed_850mb
54 53 61 60 60 53 48 55 61 52 40 31 27 35 48 41 32 33 33 29 34 35 33 31 27 24 32 33 32 33 32 27 24 25 24 27 55 30 39 24 24 28 27
61 52 54 61 58 58 49 39 41 44 45 35 31 39 43 39 36 36 31 35 36 35 30 32 27 26 27 36 36 35 34 32 27 26 29 31 42 28 26 19 24 27 35
68 62 53 56 60 57 51 43 47 38 52 47 49 40 44 47 43 41 40 39 40 37 38 36 29 28 27 35 40 39 36 36 30 28 32 33 36 29 28 24 17 25 25
73 66 60 61 61 61 61 54 51 49 47 54 43 43 47 43 35 43 46 47 47 42 41 36 33 27 29 30 40 39 38 36 33 28 31 32 33 26 31 21 23 29 27
70 71 64 61 60 61 62 58 62 58 54 51 56 44 49 49 46 50 44 36 42 45 39 33 34 28 26 28 37 37 37 36 35 28 34 30 41 28 28 22 23 23 18
71 70 63 60 62 59 60 62 60 61 54 49 40 41 47 41 39 29 40 43 46 51 48 41 35 28 30 30 33 38 35 36 34 30 33 32 35 32 35 27 21 20 28
67 69 63 59 63 58 64 57 55 54 54 49 40 43 43 42 35 33 30 49 54 61 55 46 41 31 30 28 33 38 39 38 33 30 33 34 33 32 30 18 26 31 32
63 63 60 56 54 59 58 58 57 58 60 43 47 44 34 28 39 39 43 45 46 46 40 46 35 40 28 27 33 39 40 38 34 31 34 38 35 32 36 33 36 39 32
64 61 54 53 52 54 55 60 56 62 42 37 45 28 13 13 14 28 32 37 41 34 32 28 40 41 34 36 35 38 40 39 37 34 40 39 38 36 36 36 39 33 34
62 55 50 55 47 46 48 44 63 47 43 41 32 35 34 24 11 9 20 28 23 22 31 30 31 32 35 41 35 32 39 40 37 37 43 41 40 36 39 38 33 39 45
52 50 50 57 47 38 45 42 33 38 42 34 28 18 22 17 22 27 23 23 23 22 28 38 35 51 35 45 35 33 39 43 41 42 43 46 40 40 39 35 43 48 47
53 49 47 51 43 35 35 38 28 35 31 31 31 19 25 22 24 28 31 32 21 18 17 18 23 29 35 37 38 31 35 43 45 47 50 47 44 42 37 41 45 48 48
49 44 40 46 38 43 35 32 33 34 35 32 27 22 22 25 29 30 25 19 11 19 22 20 18 29 28 51 37 36 36 39 43 45 49 45 46 43 40 44 50 53 38
40 43 42 38 35 35 29 35 36 36 31 25 26 29 31 31 31 29 20 22 11 16 19 23 24 29 28 23 29 30 34 36 44 48 47 47 45 41 43 45 48 43 37
37 45 47 40 34 29 34 31 30 24 25 24 26 27 22 23 24 17 21 17 25 15 23 23 29 34 38 34 32 31 34 38 41 45 48 47 43 38 41 46 43 41 38
40 43 40 36 31 34 32 25 20 18 25 27 27 25 20 24 21 19 22 17 18 15 17 27 30 41 35 32 35 32 35 39 39 42 46 44 41 37 40 43 42 39 39
44 42 35 29 33 28 19 14 20 25 29 29 29 32 22 23 19 26 20 18 18 21 25 30 31 40 37 36 34 31 37 40 41 36 43 41 40 39 43 45 40 39 37
36 34 29 24 19 18 20 24 22 19 20 25 29 31 23 19 20 25 26 24 18 18 25 40 40 38 34 33 34 35 38 41 41 44 41 40 38 44 47 42 41 41 35
35 31 27 22 18 22 22 19 21 20 28 30 30 28 27 23 19 24 29 32 23 17 34 48 54 47 44 36 40 44 39 45 43 46 43 40 41 48 46 42 40 36 33
33 28 25 24 18 15 17 17 23 26 26 26 26 28 35 30 19 23 35 26 25 30 39 55 55 51 46 43 42 42 43 47 49 49 48 42 46 44 44 40 38 35 33
33 30 25 18 21 21 25 20 14 12 18 25 22 24 27 30 22 21 32 29 27 33 47 54 55 52 46 45 47 49 55 53 52 52 51 49 50 51 47 42 38 34 32
29 27 25 19 24 18 14 11 10 8 9 19 26 22 28 36 22 22 28 30 33 36 47 48 53 52 50 53 49 52 56 63 56 50 56 59 51 52 47 41 38 38 38
31 28 22 19 17 14 8 9 11 6 1 5 14 25 32 23 23 20 23 28 31 27 28 32 46 50 54 54 53 54 55 61 64 61 57 56 50 48 42 38 40 40 39
32 28 22 14 12 13 11 13 12 10 7 10 16 23 21 18 20 21 27 30 32 27 16 22 39 46 44 50 45 48 57 60 62 56 58 63 54 40 36 35 36 42 42
28 29 17 14 14 14 14 14 8 7 10 13 18 23 23 25 27 29 37 38 32 25 22 15 29 35 34 43 44 46 48 56 66 59 53 58 42 36 33 33 37 43 40
27 28 21 15 12 13 12 14 12 7 6 14 21 30 31 26 39 35 32 32 34 28 26 27 34 36 37 41 38 37 50 60 66 56 50 49 46 34 22 28 34 44 41
Wind_Direction_850mb
262 254 243 239 248 250 251 244 241 246 248 253 233 214 234 243 249 238 260 273 285 285 294 306 272 249 230 224 219 221 222 221 220 220 208 208 189 233 216 218 222 230 238
267 261 247 229 227 245 250 252 238 238 241 248 232 228 239 242 247 253 253 261 271 280 284 295 280 260 240 225 219 216 218 218 214 215 207 203 205 219 215 215 227 235 215
264 260 246 236 228 222 244 243 241 224 224 232 231 239 247 242 249 240 247 255 263 270 274 289 284 260 252 228 217 216 215 218 215 219 203 197 201 209 192 200 212 208 201
258 252 245 232 230 227 219 231 231 225 231 228 232 238 248 246 243 237 252 249 254 263 269 267 267 264 248 233 215 216 214 215 216 217 207 202 197 200 197 208 215 216 215
253 249 241 233 230 230 223 226 227 232 230 235 233 237 246 245 246 249 250 259 247 254 251 260 263 258 249 234 217 214 212 213 209 208 209 209 204 205 201 211 204 213 229
250 247 239 237 221 229 223 224 229 227 229 228 242 236 245 257 262 268 245 249 244 234 252 250 246 251 259 237 221 214 210 205 205 207 201 201 203 211 198 205 201 193 187
239 245 246 225 222 223 224 223 227 226 227 235 230 239 252 262 257 259 248 251 251 259 252 242 253 239 248 231 230 217 210 204 204 206 197 191 190 187 190 170 201 182 182
238 243 245 218 226 219 225 218 224 221 229 230 233 245 257 260 248 248 254 253 268 259 243 231 240 235 244 245 231 212 208 206 200 200 192 187 180 176 170 160 179 188 173
237 244 238 209 227 220 220 220 223 227 230 218 229 226 236 235 229 241 252 259 268 253 239 240 228 242 224 235 222 209 204 200 198 195 190 185 182 182 184 182 180 175 172
236 234 229 196 219 221 216 228 229 229 207 221 226 228 234 251 243 255 254 264 264 253 226 223 217 221 212 212 194 194 198 195 192 191 186 181 183 184 176 181 186 172 169
220 214 212 195 215 220 203 228 224 204 213 217 226 225 255 257 256 249 266 272 271 245 249 235 237 227 212 204 185 180 200 198 190 180 176 182 178 173 170 174 174 164 180
218 212 213 203 210 204 205 217 207 206 202 214 228 221 249 233 229 247 255 260 266 227 228 205 214 211 206 170 187 174 187 186 183 176 176 177 173 172 168 170 166 169 172
209 200 194 192 196 192 200 209 203 213 226 234 232 211 222 234 241 256 254 253 220 212 203 196 201 200 188 150 164 173 170 174 178 173 172 177 171 171 170 169 166 167 176
198 187 186 188 192 187 197 201 219 227 235 236 220 219 221 241 239 239 252 235 205 191 188 206 178 184 176 157 157 162 163 166 174 179 171 175 177 171 172 168 166 172 186
188 185 187 184 184 194 215 224 225 224 226 215 225 223 236 222 230 217 244 254 213 184 183 176 173 175 185 168 161 166 169 168 167 170 172 172 174 179 172 173 169 178 180
186 185 181 179 191 203 217 228 225 219 214 228 226 233 239 224 226 229 218 228 215 210 172 175 175 169 173 159 160 168 173 170 167 171 172 173 175 172 173 168 171 174 170
173 173 178 190 205 219 212 204 212 219 231 238 232 237 235 227 218 215 202 222 221 212 184 161 165 162 157 166 170 168 169 172 166 171 170 168 171 169 166 169 169 168 173
172 167 178 190 190 203 208 222 241 239 240 239 238 235 228 218 228 204 200 204 211 179 164 157 156 166 159 170 170 163 166 172 166 164 171 168 170 168 170 169 168 174 174
161 172 177 182 188 194 217 242 244 239 237 242 241 231 222 221 230 205 199 199 194 165 163 163 155 161 169 179 165 168 169 168 164 163 169 170 170 170 168 170 175 176 179
163 165 165 175 196 209 200 214 239 249 250 238 235 230 222 220 223 202 197 198 179 173 168 172 165 165 166 167 173 173 161 164 164 165 169 169 170 171 172 178 179 182 182
166 168 169 171 169 198 228 250 249 243 230 239 242 226 218 201 205 201 190 187 182 177 178 177 170 173 171 169 172 171 166 166 159 166 165 171 174 173 179 182 184 186 191
165 169 162 179 205 231 239 237 210 239 264 233 230 218 208 193 204 190 190 182 179 180 181 181 180 179 176 176 178 175 172 158 154 170 176 175 180 183 184 189 197 195 192
169 155 172 188 232 206 177 177 163 191 131 139 151 169 173 196 199 187 175 171 166 187 189 188 186 186 181 183 183 175 172 169 167 171 186 172 182 184 188 200 195 199 202
171 160 176 215 170 147 146 155 143 180 215 159 155 167 181 179 175 163 159 156 163 169 185 202 197 186 185 181 186 179 180 180 170 173 185 172 180 190 200 204 210 204 205
178 164 169 164 135 135 136 161 161 204 177 168 173 168 158 159 154 150 163 163 160 170 148 149 176 186 180 179 185 189 184 177 167 171 180 182 178 188 199 213 209 205 213
160 152 157 155 129 126 123 131 124 100 176 179 175 172 166 156 156 154 164 169 171 169 163 161 160 171 175 181 190 198 190 184 181 173 185 185 179 183 204 234 222 221 226